GFSMA_925_rhum_051.txt.gz
RH
58 57 60 61 63 67 66 63 55 49 46 42 36 30 29 28 26 30 33 40 64 78 75 74 69 66 64 62 63 64 66 71 72 73 73 79 80 80 82 83 83 84 84
58 60 60 64 65 63 62 57 48 44 40 30 26 24 24 24 26 30 32 44 55 60 68 63 58 54 54 52 54 55 62 63 68 66 66 70 73 74 75 73 72 74 75
63 65 64 67 60 54 49 47 42 35 29 30 27 24 24 23 26 28 34 32 40 35 28 22 20 26 28 46 51 56 60 64 66 65 66 68 71 72 71 69 70 71 70
76 75 67 63 54 48 43 39 34 32 32 29 26 24 24 25 27 28 34 32 34 30 32 30 19 17 18 44 55 59 60 62 63 68 70 68 69 71 70 72 70 70 72
84 72 63 65 49 42 38 32 35 31 29 28 25 19 25 30 31 28 30 31 34 36 34 31 26 23 29 39 50 55 62 64 68 67 68 70 69 71 71 72 73 71 71
76 62 54 47 41 38 34 34 34 31 29 28 23 20 27 34 30 32 31 29 29 34 32 28 25 23 26 31 40 48 58 63 66 66 68 71 71 72 71 73 71 70 69
63 55 51 42 36 32 31 29 30 30 32 28 22 20 25 30 36 32 35 27 28 28 28 24 24 26 25 30 34 40 54 57 63 67 69 69 71 71 72 71 69 69 67
62 64 56 44 34 31 30 29 30 30 31 30 26 27 30 25 26 30 28 26 27 26 24 25 28 28 28 29 32 42 43 51 64 64 67 70 71 72 70 68 66 65 64
64 61 56 46 45 32 33 33 31 31 30 30 29 28 31 31 23 17 22 25 24 24 25 26 30 28 29 32 34 36 44 53 57 64 66 70 70 69 67 65 64 63 62
57 45 37 34 33 31 32 28 30 27 28 29 29 26 32 28 27 27 19 22 20 24 24 27 28 30 32 32 34 37 42 47 57 63 67 68 67 65 64 62 60 58 58
38 34 34 39 38 31 30 30 31 28 27 28 29 28 26 27 28 30 36 24 24 25 27 27 28 30 33 33 34 36 41 51 58 64 69 70 67 65 63 62 66 69 74
38 39 38 32 32 33 33 33 33 33 32 33 31 29 30 29 26 30 33 33 33 29 27 28 30 32 30 32 34 39 44 52 61 66 65 66 66 64 63 67 73 65 74
38 37 38 33 35 34 34 36 38 40 38 38 34 30 30 32 32 34 36 38 37 34 32 28 27 27 28 30 36 39 50 54 54 57 61 63 63 62 62 63 66 65 67
34 33 29 31 33 33 34 39 41 39 39 38 37 37 36 35 36 37 40 43 46 39 34 30 29 28 30 34 40 44 48 48 51 54 57 59 61 62 63 62 71 78 73
30 30 30 30 31 30 31 32 33 29 30 33 35 37 40 38 39 42 43 44 47 52 46 36 32 34 36 41 44 48 50 49 50 55 57 59 60 61 60 62 66 67 71
30 30 30 31 31 30 29 28 28 31 30 32 36 39 40 40 41 43 44 45 44 45 50 42 41 43 45 49 51 51 48 52 54 54 56 53 55 60 62 66 73 75 75
29 29 29 28 28 27 26 25 26 29 33 35 39 41 42 43 44 42 41 42 44 46 49 49 51 53 54 55 53 52 60 58 58 49 51 56 58 61 62 67 69 71 78
26 26 26 25 25 26 25 24 26 30 35 38 40 43 45 43 45 43 43 44 47 49 53 56 56 59 58 53 55 64 65 51 51 51 51 56 60 62 63 65 66 66 68
27 26 26 25 26 28 27 26 30 34 38 41 43 45 48 49 46 44 48 51 54 54 54 57 59 56 58 65 81 61 56 53 52 53 55 57 61 63 64 64 63 63 63
28 28 28 28 29 29 30 33 39 42 44 44 45 46 48 49 48 52 60 62 60 62 66 64 66 72 78 74 61 56 54 57 60 62 67 62 62 61 59 58 64 66 68
29 30 30 31 32 34 29 39 50 48 45 44 45 45 44 46 55 59 64 66 67 71 78 83 84 94 74 62 56 56 61 67 71 79 67 68 62 66 69 65 64 63 64
33 33 32 32 33 30 31 44 65 58 50 46 46 45 47 49 48 56 60 59 60 67 95 97 94 79 67 57 60 68 78 90 88 69 70 76 73 72 68 66 63 64 67
33 34 34 34 32 36 32 49 67 62 55 49 48 48 51 51 55 57 58 59 64 71 72 71 65 59 60 62 74 88 91 88 85 81 79 79 73 71 68 67 66 66 71
34 32 34 35 36 35 36 52 68 60 49 48 49 51 52 54 56 56 64 70 80 81 65 58 57 60 68 86 99 92 80 87 86 77 72 82 73 73 72 72 72 75 77
34 33 37 37 36 35 40 60 70 59 50 50 49 50 53 56 55 61 64 78 79 66 62 56 66 74 75 66 66 71 91 90 84 74 76 78 79 84 81 80 75 65 68
37 37 36 38 37 40 42 58 67 61 56 54 56 58 54 54 59 63 68 71 72 68 67 78 82 70 62 64 69 73 91 96 92 88 70 84 92 89 87 65 64 79 77

GFSMA_925_rhum_057.txt.gz
RH
71 68 64 67 68 69 74 67 60 56 49 42 32 26 24 26 25 29 33 36 50 80 76 70 66 64 62 60 60 62 66 67 68 72 70 72 76 75 76 77 76 75 76
58 59 65 68 70 70 73 63 53 51 50 45 28 26 24 24 24 28 34 39 40 49 60 60 56 54 54 56 61 64 66 68 71 71 74 76 76 74 76 77 77 77 76
57 60 65 64 69 66 64 59 53 48 43 31 28 25 24 23 23 30 34 38 34 32 30 39 43 46 47 48 58 61 66 71 73 76 74 73 75 79 74 77 78 79 78
57 61 62 67 67 65 63 58 48 39 30 28 25 20 22 23 25 29 34 35 34 32 32 30 33 38 39 43 49 55 61 68 71 73 74 77 80 76 78 78 76 77 77
59 62 64 66 65 58 51 45 38 33 28 24 18 19 19 22 30 31 33 33 32 30 28 27 26 22 25 40 47 52 54 60 66 70 76 77 78 77 77 78 76 74 74
64 66 66 64 59 51 46 41 33 28 24 18 15 20 24 24 30 29 31 31 29 28 28 26 25 23 21 28 42 45 49 58 61 67 72 73 75 75 75 75 73 73 70
70 71 68 62 54 49 45 37 30 28 20 14 16 20 27 27 30 29 31 31 29 30 28 26 24 22 24 25 26 39 47 52 57 61 67 70 74 73 72 71 70 69 68
72 75 70 59 49 47 36 31 28 26 24 15 17 31 40 31 27 30 33 34 28 28 25 25 24 26 27 27 27 35 40 46 52 57 63 68 70 70 70 68 67 66 65
80 75 65 51 46 42 37 30 28 28 27 24 15 25 37 40 34 24 32 31 27 24 26 25 27 26 28 28 28 29 30 44 48 53 61 66 68 67 67 66 64 64 69
79 72 59 47 44 44 40 37 24 21 21 24 24 20 20 24 31 27 22 26 25 24 24 22 25 28 28 27 28 29 35 41 46 53 57 62 64 64 63 60 62 64 76
68 63 59 52 55 55 45 26 22 19 22 20 26 25 25 28 28 37 43 37 25 22 23 27 24 27 30 32 33 34 40 47 48 53 56 60 61 61 60 61 67 73 72
67 66 63 61 57 39 31 26 20 17 20 18 20 22 25 30 37 37 49 48 44 35 35 27 30 34 31 34 36 40 52 54 56 56 55 58 61 62 61 63 67 58 70
65 64 67 60 45 36 32 25 19 20 16 19 22 27 28 29 33 34 39 48 56 42 40 37 36 34 36 38 37 46 55 58 55 56 60 63 62 59 59 58 57 69 77
66 63 48 41 42 35 31 25 20 19 17 21 26 28 30 32 35 38 40 47 67 60 46 43 40 39 40 37 45 55 54 58 61 61 63 62 63 61 59 60 66 64 67
56 44 44 44 43 32 27 22 21 21 25 27 29 33 35 38 39 40 42 44 52 73 58 49 46 44 50 53 56 60 59 58 62 63 65 65 64 62 62 61 74 72 79
46 45 45 43 35 27 25 26 23 24 25 29 33 35 36 40 42 43 44 45 45 52 66 46 53 54 59 60 58 60 57 64 65 65 68 65 63 63 66 67 66 75 75
44 44 36 31 31 26 24 24 24 26 26 30 34 37 40 42 44 45 46 47 46 48 65 60 61 64 64 63 65 65 68 72 72 70 64 63 62 64 64 66 67 73 75
37 38 31 26 24 23 23 24 26 26 30 34 37 40 42 44 46 48 50 50 50 53 61 68 70 70 73 72 74 77 79 84 74 68 65 63 66 68 70 72 74 70 70
36 30 27 26 23 22 23 23 27 30 35 40 44 45 45 47 47 48 50 50 53 58 63 68 75 75 78 82 86 85 90 79 70 66 63 66 72 78 77 73 72 73 75
33 28 26 24 23 24 24 29 34 39 43 45 45 45 46 48 47 48 53 56 58 62 66 71 80 85 84 73 77 89 80 68 68 68 72 79 80 76 74 76 78 80 81
28 28 25 24 26 28 29 27 26 31 32 33 38 44 49 49 54 55 57 58 61 63 65 74 89 81 78 79 81 72 73 73 72 78 78 80 78 81 83 81 80 80 81
26 24 26 28 28 29 30 26 32 32 30 39 48 49 49 49 51 57 57 59 61 62 69 79 84 82 80 76 74 75 78 82 85 75 82 85 82 83 81 80 79 78 78
28 33 35 32 32 34 35 34 40 41 37 46 51 52 53 55 56 58 60 63 61 68 71 72 83 84 82 76 74 86 97 99 91 88 88 87 80 81 79 78 78 82 84
39 31 32 33 35 38 36 40 58 45 42 45 55 60 61 64 64 66 64 66 67 68 74 80 80 76 76 87 97 90 87 89 88 84 80 87 79 80 80 82 83 84 84
32 34 35 36 34 35 38 45 56 55 52 56 62 67 73 71 68 67 67 69 74 77 72 74 74 80 80 76 75 78 88 92 87 80 80 84 82 88 87 85 67 69 75
36 34 35 36 35 35 39 47 55 58 59 61 68 70 69 71 70 70 70 74 76 72 67 77 81 69 67 68 80 82 86 96 94 89 70 86 92 94 87 69 68 75 73

GFSMA_925_rhum_063.txt.gz
RH
81 76 78 72 66 69 72 77 79 62 49 45 40 36 30 27 27 29 36 62 78 80 75 71 66 63 63 66 69 70 73 78 79 81 79 79 80 84 82 81 82 82 82
79 82 81 74 66 67 73 79 82 58 43 37 34 31 26 26 26 30 36 56 61 69 66 60 58 58 55 58 61 66 72 77 78 79 80 83 84 82 83 82 81 80 79
79 82 82 78 66 71 74 80 83 54 46 43 37 29 26 24 24 30 39 42 44 42 50 52 52 51 54 55 59 62 64 70 75 77 80 83 82 83 81 80 80 79 78
75 79 78 80 71 74 76 79 68 51 46 42 31 26 24 24 23 30 37 37 35 33 33 32 32 38 42 46 51 58 60 64 67 70 75 78 79 81 79 78 77 77 77
70 74 73 75 73 74 77 73 55 50 49 39 26 21 22 22 25 30 37 36 34 31 29 27 25 22 22 38 46 49 54 56 63 68 70 71 75 77 77 76 75 74 74
66 72 72 68 70 74 73 60 54 50 44 30 21 22 22 26 29 33 36 36 32 30 28 28 24 24 23 26 38 43 50 51 55 60 63 67 71 74 74 73 72 71 71
65 69 69 68 71 71 65 58 52 47 34 23 22 26 30 30 31 32 33 33 33 32 30 28 25 25 26 25 26 33 46 48 50 55 60 65 67 71 71 70 70 69 68
63 66 64 65 69 68 62 57 53 41 26 20 20 28 40 34 36 35 35 34 34 32 31 27 27 26 25 25 26 27 30 51 50 56 60 63 67 68 68 67 68 67 66
67 67 64 62 67 66 63 55 49 43 27 24 19 27 43 38 36 28 35 40 37 33 29 27 24 25 24 25 28 29 33 56 55 56 61 66 67 68 68 67 67 65 65
70 69 68 65 67 63 60 55 48 37 32 28 22 20 20 23 27 22 30 36 32 29 27 24 25 24 26 29 30 29 55 63 63 65 68 69 68 69 67 65 65 64 64
76 75 75 70 68 61 60 59 45 36 36 33 23 21 21 21 21 28 29 32 32 29 28 24 26 26 30 32 31 34 54 59 60 62 66 66 70 68 66 65 64 64 60
79 80 81 75 66 62 63 55 47 42 38 27 22 20 18 25 33 35 45 44 41 27 27 27 29 30 35 33 35 35 38 62 66 66 68 71 71 69 68 68 66 63 61
86 87 84 79 65 63 57 54 47 41 30 22 19 16 17 19 23 29 33 45 48 42 33 30 32 33 34 35 37 40 58 65 68 69 70 73 72 71 70 67 66 63 59
86 86 84 78 66 62 58 55 43 29 23 20 19 19 22 24 27 28 32 40 56 60 49 34 36 37 39 40 46 55 54 69 69 73 75 74 73 72 69 68 67 64 62
88 84 80 74 67 62 60 43 33 28 21 22 22 24 27 32 33 34 36 40 45 58 65 44 38 40 41 47 54 62 67 62 76 76 76 76 74 73 72 70 69 67 74
89 81 72 67 66 62 44 38 28 24 23 26 26 28 31 33 36 38 41 43 46 51 70 49 45 47 48 57 61 66 66 66 68 76 78 78 78 76 74 71 75 75 76
87 79 74 72 64 51 39 30 25 26 29 32 32 32 34 38 40 42 44 46 48 52 70 58 53 53 58 62 63 65 64 59 65 77 80 81 80 77 73 72 73 74 76
82 77 72 62 49 48 38 30 37 34 30 33 35 37 40 41 42 46 48 49 51 52 59 67 62 62 65 64 68 70 67 68 74 72 81 81 76 76 77 77 76 75 85
69 63 57 49 46 42 32 28 27 30 33 40 49 45 43 45 46 48 49 49 50 55 58 66 75 71 72 71 74 79 78 80 76 75 74 76 77 80 82 79 75 73 76
54 55 55 53 41 32 30 38 50 60 64 50 46 43 42 43 47 49 55 59 59 62 63 67 76 79 79 80 86 88 83 79 81 77 79 83 83 84 80 77 82 84 85
43 41 36 33 40 48 47 50 61 61 44 34 35 39 42 45 56 66 65 67 68 67 66 70 84 85 90 88 87 84 88 87 88 83 74 78 77 82 82 85 82 83 87
39 34 36 39 40 61 88 82 68 40 32 33 32 36 42 48 50 59 70 70 70 71 72 77 82 95 91 83 84 90 91 94 87 76 80 86 85 86 76 76 79 86 84
47 58 69 76 79 87 95 90 63 41 28 33 40 44 49 57 61 63 69 77 74 75 76 79 86 84 86 83 82 93 98 100 94 87 90 90 85 85 68 77 78 82 83
78 82 91 98 98 95 96 78 36 39 43 46 51 61 66 66 69 79 77 73 77 78 74 78 80 78 77 86 95 89 87 86 90 89 82 86 77 81 79 78 79 81 86
100 98 85 71 87 68 58 47 46 50 50 55 64 70 74 75 75 78 76 81 76 76 72 72 78 84 85 78 76 83 93 96 88 82 81 85 84 83 84 83 69 58 81
81 57 56 49 43 45 58 52 53 54 60 71 75 68 64 82 82 79 77 75 77 71 70 81 81 70 63 67 81 86 90 99 95 89 70 85 89 94 87 66 69 66 71

GFSMA_925_rhum_066.txt.gz
RH
62 66 66 70 73 75 80 82 82 71 61 69 45 42 38 31 28 29 47 84 82 79 75 70 66 64 64 68 68 72 78 80 81 80 82 84 85 84 84 83 82 81 81
72 69 69 75 72 72 75 80 82 69 50 45 42 36 31 27 28 31 43 67 64 66 65 62 60 57 58 60 65 66 73 75 79 80 83 84 84 84 83 82 81 81 80
79 77 75 79 74 70 74 82 86 70 46 40 37 36 29 27 27 30 37 45 50 49 54 57 55 55 53 57 61 63 65 67 71 73 78 82 82 82 81 80 79 79 79
78 78 80 82 78 73 74 78 84 74 47 43 40 33 26 25 24 30 40 42 39 36 38 44 43 42 45 49 54 56 59 60 65 70 73 73 77 79 79 78 77 76 76
74 76 79 82 84 77 76 78 80 64 48 43 36 28 25 24 23 30 39 40 36 34 33 33 25 22 26 42 47 49 54 57 60 64 67 69 73 75 77 75 75 74 73
66 75 75 78 80 83 78 82 76 55 49 44 28 23 23 24 27 33 39 38 36 32 30 29 25 23 23 23 31 46 51 53 55 58 61 65 69 72 73 73 72 71 71
60 62 71 76 78 81 76 79 62 52 46 35 25 26 28 30 31 34 39 38 35 33 31 29 26 25 24 24 23 23 53 56 56 57 60 64 66 71 71 70 70 69 70
68 62 66 72 76 74 76 75 62 51 40 30 23 27 38 34 37 36 35 35 34 35 32 30 27 26 24 23 22 22 25 57 59 60 62 64 68 70 69 70 69 70 68
80 70 68 72 74 70 72 68 60 54 40 28 23 29 45 40 40 35 38 38 37 35 34 30 27 25 23 22 25 27 46 64 65 66 70 72 72 71 70 69 69 68 68
84 84 74 70 73 70 72 67 58 56 54 37 31 26 26 26 34 26 31 40 41 38 33 28 26 24 25 26 28 28 37 61 61 62 65 69 71 71 71 69 68 67 66
86 85 86 78 74 72 73 67 61 59 56 59 41 34 25 22 19 24 27 36 36 32 30 29 28 27 28 30 30 30 46 61 63 67 71 72 73 73 72 70 69 67 69
88 86 86 82 79 75 74 70 66 62 58 58 52 32 23 24 28 29 36 40 37 29 31 29 30 30 31 33 34 37 35 62 67 70 74 75 75 74 73 72 70 69 67
91 84 83 84 82 77 75 70 67 63 58 55 38 32 27 20 19 27 28 43 40 35 30 28 29 32 34 34 37 37 39 56 70 72 74 77 77 77 75 73 71 69 66
81 84 92 91 87 81 75 71 67 62 61 44 33 26 22 20 21 23 26 35 51 54 46 32 32 33 36 38 39 49 52 56 74 75 76 77 77 76 75 74 71 69 66
92 95 94 93 89 82 72 68 63 57 43 29 26 25 23 24 29 32 34 32 36 48 55 41 34 36 37 43 47 57 58 62 77 73 72 76 76 75 74 71 70 68 74
94 96 98 96 90 78 71 63 55 40 30 28 26 28 32 34 35 36 39 40 40 43 59 42 40 42 44 49 53 60 63 66 68 74 76 78 78 76 73 75 77 81 80
98 96 96 92 84 72 63 52 39 33 30 31 33 36 37 37 38 39 41 44 47 50 66 57 53 47 53 56 59 63 67 70 64 65 77 78 79 76 75 73 74 74 80
97 94 89 82 71 62 49 38 36 37 40 41 43 42 44 46 47 47 47 48 50 52 60 68 60 60 62 62 66 71 73 69 68 63 83 81 79 79 80 78 78 79 84
89 81 73 66 59 48 41 50 63 66 58 50 46 54 69 68 66 54 48 48 48 53 59 67 73 71 70 71 76 81 78 77 76 72 75 82 82 84 85 80 77 76 77
74 68 61 56 52 47 42 36 39 51 71 74 73 78 73 52 41 46 54 61 63 65 67 70 72 77 80 80 84 89 90 81 83 79 66 78 84 80 80 78 82 85 85
58 57 50 47 40 37 47 61 74 79 78 70 63 61 53 48 60 75 72 73 71 71 71 72 83 88 88 82 90 84 90 90 92 85 75 77 75 81 78 80 78 81 86
59 62 64 57 58 67 74 84 85 81 75 52 47 40 43 47 45 48 54 73 75 76 77 82 86 96 92 86 86 88 91 96 87 79 80 88 83 84 75 74 79 86 85
61 61 61 66 85 99 97 94 96 87 60 41 38 44 49 53 53 52 62 78 78 81 82 83 85 84 88 83 82 95 99 100 93 87 90 90 85 87 76 69 78 82 82
62 76 88 94 98 100 99 56 44 39 45 50 53 58 61 60 58 80 82 77 82 83 75 79 82 79 80 87 92 88 85 89 93 90 86 91 79 80 77 75 79 82 81
100 100 100 98 98 94 98 77 51 53 52 56 65 67 65 71 74 83 78 82 80 76 69 70 81 88 87 81 82 90 93 99 91 85 85 88 86 82 84 82 65 58 77
97 98 98 94 95 95 88 61 66 56 65 69 72 66 68 85 85 80 77 78 78 72 73 85 84 70 63 67 72 84 93 100 97 90 72 87 88 94 91 64 66 67 73

GFSMA_925_rhum_069.txt.gz
RH
59 65 67 71 73 76 79 82 81 80 69 75 53 44 43 40 31 31 64 90 85 79 76 70 68 66 68 69 71 76 80 80 81 83 85 86 85 85 84 83 83 83 82
58 61 66 68 72 75 77 80 80 76 60 65 46 42 35 30 29 36 65 88 74 66 68 66 63 61 61 63 68 69 72 75 75 78 82 84 84 84 82 82 81 81 81
64 62 64 69 70 73 76 80 83 77 55 48 41 37 35 30 29 34 49 62 67 56 61 61 61 57 56 60 60 64 66 67 69 72 76 77 79 82 81 80 79 78 78
71 72 75 73 78 77 76 80 85 77 53 44 40 39 33 28 28 33 46 54 52 47 52 51 49 48 50 53 55 56 58 61 65 68 73 72 75 78 79 78 77 76 76
77 80 76 76 83 84 76 77 85 84 62 46 43 38 30 26 25 29 39 44 40 37 35 35 28 23 25 41 50 52 55 57 59 61 64 67 72 73 76 76 75 74 73
74 82 77 76 83 89 83 80 82 79 61 48 40 32 28 26 24 29 39 44 38 35 33 30 26 22 21 22 26 40 52 58 60 60 62 64 67 71 73 73 73 72 72
70 71 75 74 79 89 89 79 82 71 54 46 35 30 28 28 28 32 40 43 39 36 32 29 28 25 23 23 23 21 28 55 59 62 65 66 68 69 72 72 71 71 70
81 74 69 69 76 83 87 86 82 68 50 45 34 37 36 37 36 34 40 43 40 36 34 31 29 27 25 24 22 20 32 68 68 68 69 72 74 74 72 71 71 70 70
83 80 72 65 66 80 80 85 81 73 51 41 31 33 45 43 44 38 36 37 38 37 36 33 30 28 26 23 22 22 27 34 63 64 68 69 70 73 72 71 70 70 70
86 85 79 70 62 70 79 80 78 73 60 50 34 29 32 31 45 36 32 41 40 39 37 35 31 28 26 25 24 26 30 38 64 66 69 72 74 73 72 72 71 69 69
93 90 86 79 73 72 77 77 76 70 58 63 51 44 36 38 38 30 33 40 40 41 40 35 30 29 28 27 28 30 32 53 61 65 70 75 77 75 74 73 72 71 71
100 100 98 90 83 78 78 77 77 72 59 63 62 62 53 44 42 28 32 36 38 36 36 34 34 32 30 30 32 32 32 44 64 71 75 78 77 76 76 75 74 72 70
100 96 97 100 94 88 84 82 80 77 63 64 63 63 54 32 27 28 48 46 38 36 31 29 33 32 32 33 34 37 38 37 67 71 77 80 77 78 78 76 74 73 71
89 93 96 100 100 98 92 87 84 80 70 65 60 58 40 33 34 36 25 37 46 48 40 33 30 32 35 35 35 38 48 47 68 76 77 76 75 75 76 74 73 72 71
96 98 100 100 100 100 98 91 87 81 71 66 58 51 47 31 28 28 39 42 44 48 39 41 40 32 34 37 44 54 63 65 77 78 77 76 77 76 74 73 73 69 71
100 100 100 100 100 100 96 90 84 75 67 60 42 30 32 36 41 42 39 37 36 37 40 40 36 36 42 45 48 59 65 65 74 77 77 78 78 77 75 73 71 71 78
100 100 100 100 100 98 91 83 76 62 47 32 31 34 40 43 48 49 47 49 54 59 82 56 48 44 46 49 56 63 66 73 74 76 76 78 83 79 77 76 75 74 74
100 100 100 99 95 87 77 70 54 39 34 40 44 46 54 62 83 84 81 66 59 56 59 59 60 61 62 59 68 72 76 73 73 71 80 86 82 83 83 81 78 82 84
100 98 94 85 75 65 60 49 37 37 44 55 68 76 77 84 94 88 79 60 54 53 65 72 70 74 75 75 77 80 85 87 83 80 80 81 83 86 87 82 79 77 78
82 76 71 68 59 50 45 43 53 70 71 71 75 84 87 96 92 91 78 76 87 90 90 80 75 80 82 81 88 87 73 69 73 78 80 82 85 82 81 82 84 87 86
67 69 65 63 60 58 59 54 53 64 75 81 90 98 89 77 85 93 95 92 89 81 77 87 83 80 83 79 75 73 75 75 78 79 76 75 73 75 76 78 79 83 86
68 72 77 71 70 69 69 71 81 91 95 96 98 64 52 53 53 53 89 80 76 78 84 89 90 85 76 75 75 77 82 84 79 71 76 78 76 76 74 75 76 82 84
89 87 81 80 90 99 93 93 96 95 80 50 45 48 53 59 57 55 58 73 76 83 87 85 81 77 77 74 83 98 91 90 88 83 83 82 75 75 73 73 77 80 83
97 100 100 100 99 100 99 81 56 36 44 50 55 62 71 57 55 81 82 81 83 84 77 82 80 79 84 89 89 89 87 90 86 80 78 80 70 70 72 73 77 82 82
95 99 100 100 99 88 73 49 48 52 55 70 86 81 76 71 79 82 81 84 82 78 68 72 86 90 90 84 85 90 93 90 90 76 77 78 74 75 77 79 72 62 77
99 99 99 97 93 92 95 89 65 61 75 76 68 64 67 88 84 80 79 81 80 72 77 88 85 67 63 66 71 90 98 100 97 85 72 89 80 84 79 67 71 73 76